This is the latest recevied weather packets stored in our database for station/object N4BBA. If no packets are shown the sender has not sent any weather packets the latest 10 day(s).
| Time | Temp. | Humidity | Pressure | Rain* | Wind** | Luminosity | Snow |
|---|---|---|---|---|---|---|---|
| 1777532714 | 16.11° C | 97% | 1007.4 hPa | 0 mm | - | 0 W/m² | - |
| 1777532410 | 16.11° C | 96% | 1007.5 hPa | 0 mm | - | 0 W/m² | - |
| 1777532107 | 16.11° C | 96% | 1007.7 hPa | 0 mm | - | 0 W/m² | - |
| 1777531803 | 16.11° C | 96% | 1007.7 hPa | 0 mm | - | 0 W/m² | - |
| 1777531499 | 16.11° C | 96% | 1007.8 hPa | 0 mm | - | 0 W/m² | - |
| 1777531197 | 16.67° C | 96% | 1007.9 hPa | 0 mm | - | 0 W/m² | - |
| 1777530894 | 16.67° C | 96% | 1008 hPa | 0 mm | - | 0 W/m² | - |
| 1777530592 | 16.67° C | 96% | 1008.2 hPa | 0 mm | - | 0 W/m² | - |
| 1777530289 | 16.67° C | 96% | 1008.3 hPa | 0 mm | - | 0 W/m² | - |
| 1777529984 | 16.67° C | 96% | 1008.2 hPa | 0 mm | - | 0 W/m² | - |
| 1777529682 | 16.67° C | 96% | 1008.2 hPa | 0 mm | - | 0 W/m² | - |
| 1777529378 | 16.67° C | 96% | 1008.1 hPa | 0 mm | - | 0 W/m² | - |
| 1777529075 | 16.67° C | 95% | 1008.2 hPa | 0 mm | - | 0 W/m² | - |
| 1777528770 | 16.67° C | 95% | 1008.2 hPa | 0 mm | - | 0 W/m² | - |
| 1777528468 | 17.22° C | 95% | 1008.4 hPa | 0 mm | - | 0 W/m² | - |
| 1777528167 | 17.22° C | 95% | 1008.3 hPa | 1.27 mm | - | 0 W/m² | - |
| 1777527863 | 17.22° C | 95% | 1008.4 hPa | 3.05 mm | - | 0 W/m² | - |
| 1777527559 | 17.22° C | 95% | 1008.6 hPa | 3.05 mm | - | 0 W/m² | - |
| 1777527254 | 17.22° C | 95% | 1008.3 hPa | 4.83 mm | - | 0 W/m² | - |
| 1777526950 | 17.22° C | 95% | 1008.4 hPa | 3.05 mm | - | 0 W/m² | - |
| 1777526646 | 17.22° C | 94% | 1008.5 hPa | 4.32 mm | - | 0 W/m² | - |
| 1777526340 | 17.22° C | 94% | 1008.9 hPa | 4.32 mm | - | 0 W/m² | - |
| 1777526036 | 17.22° C | 94% | 1008.8 hPa | 6.1 mm | - | 0 W/m² | - |
| 1777525733 | 17.22° C | 94% | 1008.6 hPa | 6.1 mm | - | 0 W/m² | - |
| 1777525430 | 17.22° C | 94% | 1008.3 hPa | 6.1 mm | - | 0 W/m² | - |
* Rain latest hour (hover to see other rain measurements)
** Current wind speed in m/s (hover to see current wind gust speed)